Weather History for KTQH - October, 2013

Change the Weather History Date:

Friday, October 18, 2013

  Actual Average (KMKO) Record (KMKO)
Temperature  
Mean Temperature 52 °F -  
Max Temperature 66 °F 71 °F 93 °F (2005)
Min Temperature 37 °F 47 °F 37 °F (1996)
Degree Days  
Heating Degree Days 14    
Growing Degree Days 2 (Base 50)    
Moisture  
Dew Point 44 °F    
Average Humidity 88    
Maximum Humidity 100    
Minimum Humidity 56    
Precipitation  
Precipitation 0.18 in - - ()
Sea Level Pressure  
Sea Level Pressure 30.04 in    
Wind  
Wind Speed 2 mph (NNW)    
Max Wind Speed 14 mph    
Max Gust Speed 18 mph    
Visibility 8 miles    
Events      
Averages and records for this station are not official NWS values.
T = Trace of Precipitation, MM = Missing Value Source: NWS Daily Summary

Daily Weather History Graph

Daily Weather History Graph

Search for Another Location

Airport or City:

Trip Planner

Search our weather history database for the weather conditions in past years. The results will help you decide how hot, cold, wet, or windy it might be!

Date:

Astronomy

Oct. 18, 2013 Rise Set
Actual Time 7:29 AM CDT 6:40 PM CDT
Civil Twilight 7:03 AM CDT 7:05 PM CDT
Nautical Twilight 6:33 AM CDT 7:35 PM CDT
Astronomical Twilight 6:04 AM CDT 8:05 PM CDT
Moon 6:31 PM CDT (10/18) 7:06 AM CDT (10/18)
Length of Visible Light 12h 02m
Length of Day
11h 10m
Full, 100% of the Moon is Illuminated
Oct 18
Full
Oct 18
Full
Oct 26
Last Quarter
Nov 3
New
Nov 9
First Quarter

Hourly Weather History & Observations

Time (CDT) Temp. Windchill Dew Point Humidity Pressure Visibility Wind Dir Wind Speed Gust Speed Precip Events Conditions
12:15 AM 42.8 °F - 41.0 °F 93% 30.04 in 10.0 mi Calm Calm - N/A   Clear
12:35 AM 41.0 °F - 41.0 °F 100% 30.04 in 10.0 mi Calm Calm - N/A   Clear
12:55 AM 41.0 °F - 41.0 °F 100% 30.04 in 10.0 mi Calm Calm - N/A   Clear
1:15 AM 41.0 °F - 41.0 °F 100% 30.04 in 10.0 mi Calm Calm - N/A   Clear
1:35 AM 41.0 °F - 41.0 °F 100% 30.04 in 10.0 mi Calm Calm - N/A   Clear
1:55 AM 41.0 °F - 41.0 °F 100% 30.04 in 7.0 mi Calm Calm - N/A   Clear
2:15 AM 41.0 °F - 41.0 °F 100% 30.04 in 10.0 mi Calm Calm - N/A   Clear
2:35 AM 41.0 °F - 41.0 °F 100% 30.04 in 7.0 mi Calm Calm - N/A   Clear
2:55 AM 41.0 °F - 39.2 °F 93% 30.04 in 7.0 mi Calm Calm - N/A   Clear
3:15 AM 39.2 °F - 39.2 °F 100% 30.04 in 10.0 mi Calm Calm - N/A   Clear
3:35 AM 39.2 °F - 39.2 °F 100% 30.04 in 10.0 mi Calm Calm - N/A   Clear
3:55 AM 39.2 °F - 39.2 °F 100% 30.04 in 10.0 mi Calm Calm - N/A   Clear
4:15 AM 39.2 °F - 37.4 °F 93% 30.03 in 7.0 mi Calm Calm - N/A   Clear
4:35 AM 39.2 °F - 39.2 °F 100% 30.03 in 10.0 mi Calm Calm - N/A   Clear
4:55 AM 37.4 °F 31.4 °F 37.4 °F 100% 30.04 in 7.0 mi NNW 8.1 mph - N/A   Clear
5:15 AM 41.0 °F - 41.0 °F 100% 30.03 in 10.0 mi Calm Calm - N/A   Clear
5:35 AM 41.0 °F - 41.0 °F 100% 30.04 in 10.0 mi Calm Calm - N/A   Clear
5:55 AM 41.0 °F - 41.0 °F 100% 30.04 in 10.0 mi Calm Calm - N/A   Clear
6:15 AM 42.8 °F - 41.0 °F 93% 30.05 in 10.0 mi Calm Calm - N/A   Clear
6:35 AM 42.8 °F - 41.0 °F 93% 30.05 in 10.0 mi Calm Calm - N/A   Clear
6:55 AM 42.8 °F - 41.0 °F 93% 30.06 in 10.0 mi Calm Calm - N/A   Clear
7:15 AM 42.8 °F - 41.0 °F 93% 30.06 in 10.0 mi Calm Calm - N/A   Clear
7:35 AM 42.8 °F - 41.0 °F 93% 30.05 in 7.0 mi Calm Calm - N/A   Scattered Clouds
7:55 AM 42.8 °F - 42.8 °F 100% 30.06 in 10.0 mi Calm Calm - N/A   Clear
8:15 AM 44.6 °F - 44.6 °F 100% 30.06 in 10.0 mi Calm Calm - N/A   Clear
8:35 AM 46.4 °F - 44.6 °F 93% 30.06 in 10.0 mi Calm Calm - N/A   Clear
8:55 AM 46.4 °F - 44.6 °F 93% 30.06 in 10.0 mi Calm Calm - N/A   Clear
9:15 AM 50.0 °F - 46.4 °F 87% 30.06 in 10.0 mi NE 4.6 mph - N/A   Clear
9:35 AM 51.8 °F - 46.4 °F 82% 30.05 in 10.0 mi NE 4.6 mph - N/A   Clear
9:55 AM 53.6 °F - 46.4 °F 77% 30.06 in 10.0 mi Calm Calm - N/A   Clear
10:15 AM 55.4 °F - 48.2 °F 77% 30.05 in 10.0 mi NE 5.8 mph - N/A   Clear
10:35 AM 55.4 °F - 48.2 °F 77% 30.04 in 10.0 mi Calm Calm - N/A   Clear
10:55 AM 59.0 °F - 48.2 °F 67% 30.05 in 10.0 mi East 3.5 mph - N/A   Clear
11:15 AM 59.0 °F - 48.2 °F 67% 30.05 in 10.0 mi Calm Calm - N/A   Clear
11:35 AM 59.0 °F - 46.4 °F 63% 30.04 in 10.0 mi Calm Calm - N/A   Clear
11:55 AM 59.0 °F - 48.2 °F 67% 30.04 in 10.0 mi Calm Calm - N/A   Clear
12:15 PM 60.8 °F - 46.4 °F 59% 30.04 in 10.0 mi Calm Calm - N/A   Clear
12:35 PM 60.8 °F - 48.2 °F 63% 30.03 in 10.0 mi Calm Calm - N/A   Clear
12:55 PM 62.6 °F - 50.0 °F 63% 30.02 in 10.0 mi Calm Calm - N/A   Clear
1:15 PM 66.2 °F - 50.0 °F 56% 30.01 in 10.0 mi Calm Calm - N/A   Clear
1:35 PM 62.6 °F - 50.0 °F 63% 30.02 in 10.0 mi SW 4.6 mph - N/A   Clear
1:55 PM 60.8 °F - 50.0 °F 68% 30.00 in 10.0 mi South 3.5 mph - N/A   Clear
2:15 PM 59.0 °F - 50.0 °F 72% 30.00 in 10.0 mi SSW 3.5 mph - N/A   Scattered Clouds
2:35 PM 59.0 °F - 50.0 °F 72% 30.00 in 10.0 mi SW 4.6 mph - N/A   Scattered Clouds
2:55 PM 59.0 °F - 51.8 °F 77% 30.00 in 10.0 mi SW 3.5 mph - N/A   Mostly Cloudy
3:15 PM 59.0 °F - 50.0 °F 72% 29.99 in 10.0 mi Calm Calm - N/A   Scattered Clouds
3:35 PM 59.0 °F - 50.0 °F 72% 29.99 in 10.0 mi South 3.5 mph - N/A   Scattered Clouds
3:55 PM 57.2 °F - 50.0 °F 77% 30.00 in 10.0 mi SSW 3.5 mph - N/A   Scattered Clouds
4:15 PM 55.4 °F - 50.0 °F 82% 29.99 in 10.0 mi Calm Calm - N/A   Mostly Cloudy
4:35 PM 55.4 °F - 51.8 °F 88% 29.99 in 10.0 mi NNW 3.5 mph - N/A   Mostly Cloudy
4:55 PM 53.6 °F - 50.0 °F 88% 30.00 in 10.0 mi NNW 8.1 mph - N/A   Overcast
5:15 PM 53.6 °F - 50.0 °F 88% 30.01 in 10.0 mi NNW 6.9 mph - N/A   Overcast
5:35 PM 51.8 °F - 46.4 °F 82% 30.02 in 10.0 mi NNW 8.1 mph - N/A   Mostly Cloudy
5:55 PM 51.8 °F - 46.4 °F 82% 30.02 in 5.0 mi NNW 11.5 mph - N/A   Overcast
6:15 PM 50.0 °F - 46.4 °F 87% 30.03 in 10.0 mi NNW 8.1 mph - N/A   Mostly Cloudy
6:35 PM 48.2 °F - 44.6 °F 87% 30.03 in 7.0 mi North 11.5 mph 17.3 mph 0.01 in   Mostly Cloudy
6:55 PM 46.4 °F 41.1 °F 44.6 °F 93% 30.04 in 7.0 mi North 11.5 mph 18.4 mph 0.01 in   Mostly Cloudy
7:15 PM 46.4 °F 41.1 °F 44.6 °F 93% 30.06 in 4.0 mi North 11.5 mph 18.4 mph 0.01 in   Overcast
7:35 PM 44.6 °F 39.2 °F 42.8 °F 93% 30.05 in 5.0 mi North 10.4 mph 18.4 mph 0.03 in   Overcast
7:55 PM 44.6 °F 39.2 °F 42.8 °F 93% 30.06 in 10.0 mi North 10.4 mph 16.1 mph 0.03 in   Overcast
8:15 PM 44.6 °F 40.7 °F 42.8 °F 93% 30.06 in 7.0 mi North 6.9 mph - N/A   Mostly Cloudy
8:35 PM 44.6 °F - 42.8 °F 93% 30.07 in 4.0 mi Calm Calm - 0.01 in   Overcast
8:55 PM 44.6 °F 43.1 °F 44.6 °F 100% 30.08 in 2.5 mi North 3.5 mph - 0.03 in   Overcast
9:15 PM 44.6 °F 40.7 °F 44.6 °F 100% 30.09 in 4.0 mi NNW 6.9 mph - 0.01 in   Overcast
9:35 PM 44.6 °F 42.2 °F 44.6 °F 100% 30.09 in 4.0 mi North 4.6 mph - 0.03 in   Overcast
9:55 PM 44.6 °F 39.7 °F 42.8 °F 93% 30.09 in 3.0 mi NNW 9.2 mph - 0.05 in   Overcast
10:15 PM 44.6 °F 41.4 °F 42.8 °F 93% 30.09 in 3.0 mi NNW 5.8 mph - 0.02 in   Overcast
10:35 PM 42.8 °F 37.0 °F 42.8 °F 100% 30.10 in 5.0 mi NW 10.4 mph - 0.03 in   Overcast
10:55 PM 42.8 °F 35.8 °F 42.8 °F 100% 30.11 in 4.0 mi NNW 13.8 mph 17.3 mph 0.04 in   Overcast
11:15 PM 42.8 °F 37.0 °F 41.0 °F 93% 30.11 in 5.0 mi NNW 10.4 mph 18.4 mph 0.01 in   Overcast
11:35 PM 42.8 °F 35.8 °F 41.0 °F 93% 30.11 in 7.0 mi NW 13.8 mph - 0.02 in   Overcast
11:55 PM 41.0 °F 33.9 °F 41.0 °F 100% 30.12 in 5.0 mi NW 12.7 mph - 0.02 in   Overcast